Flag for U.S.A. Weather past 2 weeks in Decatur, Illinois, U.S.A.

Now
69 °F

Passing clouds.


Feels Like: 69 °F
Forecast: 66 / 82 °F
Wind: No wind

Location: Decatur Airport

Current Time: Aug 5, 2015 at 2:03:06 AM

Latest Report: Aug 5, 2015 at 12:54 AM


Visibility: 10 mi

Pressure: 30.03 "Hg

Humidity: 84%

Dew point: 64 °F

Location of DecaturLocation

Historic Weather in Decatur — Graph

°F

Decatur temperature yesterday

Maximum temperature yesterday: 81 °F (at 2:54 PM)
Minimum temperature yesterday: 63 °F (at 2:54 AM)
Average temperature yesterday: 72 °F

Past Weeks' High & Low Weather Summary

 TemperatureHumidityPressure
High92 °F (Jul 28, 2:54 PM)97% (Jul 28, 6:03 AM)30.13 "Hg (Jul 28, 6:03 AM)
Low58 °F (Jul 22, 5:54 AM)32% (Aug 1, 12:54 PM)29.77 "Hg (Aug 3, 12:54 AM)
Average77 °F70%29.96 "Hg
* Reported Jul 21 12:54 AM — Aug 5 12:54 AM, Decatur, Weather by CustomWeather, © 2015

Note: Actual official high and low records may vary slightly from our data, if they occured in-between our weather recording intervals... More about our weather records

Advertising

Decatur weather history for previous 24 hours

 ConditionsComfort  
Time TempWeatherWind HumidityBarometerVisibility
12:54 AM
Wed, Aug 5
69 °FPassing clouds.No wind84%30.03 "Hg10 mi
11:54 PM
Tue, Aug 4
68 °FClear.No wind90%30.03 "Hg10 mi
10:54 PM67 °FClear.No wind90%30.01 "Hg10 mi
9:54 PM70 °FClear.3 mph81%30.00 "Hg10 mi
8:54 PM73 °FSunny.3 mph71%30.00 "Hg10 mi
7:54 PM74 °FSunny.3 mph74%29.98 "Hg10 mi
6:54 PM78 °FSunny.3 mph56%29.96 "Hg10 mi
5:54 PM79 °FSunny.3 mph52%29.96 "Hg10 mi
4:54 PM81 °FSunny.3 mph42%29.96 "Hg10 mi
3:54 PM79 °FSunny.3 mph54%29.99 "Hg10 mi
2:54 PM81 °FPassing clouds.9 mph49%30.02 "Hg10 mi
1:54 PM80 °FPartly sunny.7 mph49%30.01 "Hg10 mi
12:54 PM79 °FScattered clouds.3 mph47%30.01 "Hg10 mi
11:54 AM78 °FScattered clouds.No wind50%30.01 "Hg10 mi
10:54 AM78 °FSunny.3 mph50%30.00 "Hg10 mi
9:54 AM78 °FSunny.No wind50%30.01 "Hg10 mi
8:54 AM72 °FSunny.3 mph66%30.01 "Hg10 mi
7:54 AM70 °FSunny.3 mph73%29.99 "Hg10 mi
6:54 AM66 °FClear.3 mph87%29.98 "Hg10 mi
5:54 AM64 °FPassing clouds.No wind87%29.98 "Hg10 mi
4:54 AM64 °FClear.3 mph87%29.95 "Hg10 mi
3:54 AM65 °FClear.No wind85%29.94 "Hg10 mi
2:54 AM63 °FClear.No wind90%29.93 "Hg10 mi
Weather by CustomWeather, © 2015

See weather overviewHow to use our weather pages